Flight Track Log - Related Links

Times and Time Zones

All times are in EST time to prevent confusion due to time zone crossing. See the N244A flight status page for this flight to view local times or setup timezone preferences in your user account.

Time Position Orientation Groundspeed Altitude Reporting Facility
EST Latitude Longitude Course Direction KTS MPH feet Rate Location/Type
01:40PM 41.1047 -73.8056 311° West 214 246 5,000  Level Boston Center
01:41PM 41.1333 -73.8500 311° West 268 308 6,900 3,689 Climbing New York TRACON
01:42PM 41.2108 -73.7647 40° Northeast 307 353 12,500 2,377 Climbing Boston Center
01:43PM 41.2575 -73.6486 62° Northeast 356 410 13,000 293 Climbing Boston Center
01:44PM 41.3047 -73.5078 66° East 413 475 13,100 49 Climbing Boston Center
01:45PM 41.3564 -73.3453 67° East 442 509 13,100  Level Boston Center
01:46PM 41.4192 -73.2069 59° Northeast 423 487 13,100  Level Boston Center
01:47PM 41.4772 -73.0714 60° Northeast 419 482 13,100  Level Boston Center
01:48PM 41.5225 -72.9300 67° East 416 479 13,100  Level Boston Center
01:49PM 41.5675 -72.7764 69° East 416 479 13,100  Level Boston Center
01:50PM 41.6125 -72.6353 67° East 416 479 13,100  Level Boston Center
01:51PM 41.6603 -72.4944 66° East 418 481 13,100 -673 Level Boston Center
01:52PM 41.7256 -72.3989 48° Northeast 439 505 11,900 -1,574 Descending Boston Center
01:52PM 41.7500 -72.3769 34° Northeast 430 495 11,500 -623 Descending Boston Center
01:53PM 41.8578 -72.3167 23° Northeast 419 482 11,100 -343 Descending Boston Center
01:54PM 41.9239 -72.2556 35° Northeast 379 436 10,900 -97 Descending Boston Center
01:54PM 41.9444 -72.2356 36° Northeast 385 443 11,000 -492 Climbing Boston Center
01:55PM 42.0025 -72.1619 43° Northeast 371 427 10,400 -885 Descending Boston Center
01:55PM 42.0244 -72.1306 47° Northeast 376 433 10,100 -436 Descending Boston Center
01:56PM 42.0661 -72.0686 48° Northeast 368 423 10,000  Descending Boston Center
01:56PM 42.0975 -72.0411 33° Northeast 351 404 10,100 -800 Climbing Boston Center
01:57PM 42.1428 -72.0058 30° Northeast 310 357 9,200 -1,377 Descending Boston Center
01:57PM 42.1669 -71.9744 44° Northeast 311 358 8,700 -1,770 Descending Boston Center
01:58PM 42.2019 -71.9222 48° Northeast 301 346 7,400 -2,129 Descending Boston Center
01:58PM 42.2347 -71.8922 34° Northeast 305 351 6,500 -1,869 Descending Boston Center
01:59PM 42.2742 -71.8603 31° Northeast 305 351 5,500 -1,377 Descending Boston Center
01:59PM 42.3064 -71.8325 33° Northeast 303 349 5,100 -276 Descending Boston Center
02:01PM 42.3789 -71.7725 31° Northeast 303 349 5,100 -49 Level Boston Center
02:02PM 42.4431 -71.7031 39° Northeast 298 343 5,000 -146 Descending Boston Center
02:03PM 42.4917 -71.6139 54° Northeast 295 339 4,800 -780 Descending Boston Center
02:04PM 42.5308 -71.5144 62° Northeast 280 322 3,400 -836 Descending Boston Center
02:05PM 42.5400 -71.4211 82° East 248 285 3,100 -344 Descending Boston Center
02:06PM 42.5397 -71.3367 90° East 227 261 2,700 -488 Descending Boston Center
02:07PM 42.5225 -71.2514 105° East 217 250 2,100 -488 Descending Boston Center
02:08PM 42.5069 -71.1778 106° East 207 238 1,700 -246 Descending Boston Center
02:09PM 42.4731 -71.1489 148° Southeast 182 209 1,600 -197 Descending Boston Center
02:10PM 42.4628 -71.2067 256° West 171 197 1,300 -537 Descending Boston Center
02:11PM 42.4686 -71.2608 278° West 151 174 500 -774 Descending Boston Center
02:13PM 42.4667 -71.2833 285° West  Level FlightAware Approximate

Login

Don't have an account? Register now (free) for customized features, flight alerts, and more!